Location: Saint-Usage
(47.1052°N, 5.2587°E)
Time: 13:42:47
(UTC+01:00)

Tiangong - Visible Passes

Search period start: 03 December 2022 00:00
Search period end: 13 December 2022 00:00
Orbit: 386 x 394 km, 41.5° (Epoch: 02 December)

Date Brightness Start Highest point End Pass type
(mag) Time Alt. Az. Time Alt. Az. Time Alt. Az.
03 Dec -0.4 18:22:46 10° SW 18:25:24 24° SSE 18:26:33 19° SE visible
04 Dec 0.0 17:25:11 10° SSW 17:27:34 19° SSE 17:29:55 10° ESE visible
04 Dec -0.5 19:01:10 10° WSW 19:03:36 28° SSW 19:03:36 28° SSW visible
05 Dec -0.5 18:03:17 10° SW 18:06:05 28° S 18:08:19 13° ESE visible
05 Dec 1.0 19:39:55 10° WSW 19:40:38 14° WSW 19:40:38 14° WSW visible
06 Dec -0.6 18:41:50 10° WSW 18:44:37 28° S 18:45:21 25° SSE visible
07 Dec -0.5 17:43:46 10° WSW 17:46:36 29° S 17:49:25 10° ESE visible
07 Dec 0.4 19:20:41 10° WSW 19:22:24 18° SW 19:22:24 18° SW visible
08 Dec -0.1 18:22:24 10° WSW 18:25:01 23° SSW 18:27:11 13° SE visible
09 Dec -0.2 17:24:10 10° WSW 17:26:56 27° S 17:29:41 10° SE visible
09 Dec 0.7 19:01:36 10° SW 19:03:16 14° SSW 19:04:22 12° S visible
10 Dec 0.5 18:02:56 10° WSW 18:05:12 18° SSW 18:07:29 10° SSE visible
12 Dec 1.0 17:43:40 10° SW 17:45:10 13° SSW 17:46:39 10° S visible
